Regional Weather Roundup
Issued by NWS Upton, NY

Current Version | Previous Version | Text Only | Print | Product List | Glossary On
Versions: 1 2 3 4 5 6 7 8 9 10 11 12 13 14 15 16 17 18 19 20 21 22 23 24 25 26 27 28 29 30 31 32 33 34 35 36 37 38 39 40 41 42 43 44 45 46 47 48 49 50
000
ASUS41 KOKX 280105
RWROKX

REGIONAL WEATHER ROUNDUP
NATIONAL WEATHER SERVICE NEW YORK NY
800 PM EST TUE JAN 27 2015

NOTE: "FAIR" INDICATES FEW OR NO CLOUDS BELOW 12,000 FEET WITH NO
SIGNIFICANT WEATHER AND/OR OBSTRUCTIONS TO VISIBILITY.

NYZ071-072-176-178-NJZ106-104-280200-
NEW YORK CITY METRO AREA


CITY           SKY/WX    TMP DP  RH WIND       PRES   REMARKS
CENTRAL PARK   CLOUDY    26  14  60 VRB7      29.76R WCI  18
LAGUARDIA APRT CLOUDY    24  15  68 N13       29.75R WCI  12
KENNEDY INTL   CLOUDY    25  14  63 N12       29.76R WCI  14
NEWARK/LIBERTY CLOUDY    25  12  58 NW20G28   29.77R WCI  11
BRNX BOT. GARD   N/A    N/A N/A N/A W3        29.75F
TETERBORO      CLOUDY    25  11  55 NW12G22   29.76R WCI  14
$$

NYZ177-179-078>081-280200-
LONG ISLAND NEW YORK

CITY           SKY/WX    TMP DP  RH WIND       PRES   REMARKS
FARMINGDALE    CLOUDY    23  11  60 N22G33    29.73R WCI   8
ISLIP          CLOUDY    21  11  65 N24G31    29.70R WCI   4
SHIRLEY        FLURRIES  21  10  62 N17G26    29.71R WCI   7
WESTHAMPTON    CLOUDY    20  11  68 N17G30    29.70R WCI   5
MONTAUK POINT    N/A     21  13  71 NW17G29   29.67R WCI   7
$$

NYZ052-065-067-280200-
HUDSON VALLEY

CITY           SKY/WX    TMP DP  RH WIND       PRES   REMARKS
WHITE PLAINS   CLOUDY    19   9  65 NW21      29.72R WCI   3
NEWBURGH       CLOUDY    14  10  85 NE8       29.77R WCI   3
MONTGOMERY     CLOUDY    15   9  76 N8        29.76R WCI   4
POUGHKEEPSIE   CLOUDY    16   5  62 N13       29.79R WCI   2
ALBANY         FLURRIES  12   1  61 N13       29.87R WCI  -3
$$

NJZ001-105-106-008-010-013-015-019>022-104-280200-
NEW JERSEY

CITY           SKY/WX    TMP DP  RH WIND       PRES   REMARKS
NEWARK/LIBERTY CLOUDY    25  12  58 NW20G28   29.77R WCI  11
TETERBORO      CLOUDY    25  11  55 NW12G22   29.76R WCI  14
CALDWELL       CLOUDY    23   9  55 N10       29.78R WCI  12
MORRISTOWN     CLOUDY    23  10  58 N12G18    29.78R WCI  12
SOMERVILLE     CLOUDY    24   8  50 NW13G23   29.78R WCI  12
SUSSEX         CLOUDY    19   3  49 NW8G17    29.78R WCI   9
ANDOVER          N/A     19   3  49 N14G25    29.78R WCI   6
TRENTON        CLOUDY    25   8  48 N16G23    29.77R WCI  12
MILLVILLE      PTCLDY    30  11  45 NW9       29.79R WCI  22
ATLANTIC CITY  PTCLDY    27  14  58 NW8       29.78R WCI  19
WRIGHTSTOWN    MOCLDY    27  11  51 NW16      29.76R WCI  14
TOMS RIVER     MOCLDY    27  18  69 N10G16    29.77R WCI  17
BELMAR         CLOUDY    27  10  50 NW16      29.75R WCI  14
$$

PAZ047>061-062-071-280200-
EASTERN PENNSYLVANIA

CITY           SKY/WX    TMP DP  RH WIND       PRES   REMARKS
PHILADELPHIA   MOCLDY    30   7  37 N16       29.82R WCI  19
ALLENTOWN      CLOUDY    20   5  52 NW14G26   29.83R WCI   7
SCRANTON       MIX PCPN  14   4  64 NW12G21   29.86R WCI   0
$$

CTZ002-004>006-009-010-012-RIZ004-006-007-MAZ004-011-015-280200-
SOUTHERN NEW ENGLAND
 IN CT

CITY           SKY/WX    TMP DP  RH WIND       PRES   REMARKS
BRADLEY INTL   LGT SNOW  16   8  71 NW17G23   29.70S WCI   0
HARTFORD       CLOUDY    16   9  74 N16G25    29.72R HAZE    WCI   1
DANBURY        CLOUDY    16   4  59 N12G28    29.74R WCI   3
WTRBRY/OXFORD  CLOUDY    16   0  48 N21G35    29.67  WCI  -2
BRIDGEPORT     CLOUDY    19   8  62 N23       29.72R WCI   2
MERIDEN        LGT SNOW  16   9  74 NW9       29.72R WCI   4
NEW HAVEN      CLOUDY    19   7  59 N14G28    29.71R WCI   6
CHESTER        LGT SNOW  18  12  79 N16       29.66R WCI   3
GROTON         FLURRIES  17  11  77 NW20G28   29.65R WCI   1
WILLIMANTIC    LGT SNOW  15   8  73 N14G23    29.67R WCI   0

 IN RI

CITY           SKY/WX    TMP DP  RH WIND       PRES   REMARKS
PROVIDENCE     LGT SNOW  16   9  74 NW15G30   29.61R BLWGSNOWWCI   1
BLOCK ISLAND   CLOUDY    19  12  73 NW13G22   29.60R WCI   7
WESTERLY       LGT SNOW  17   9  70 NW16G26   29.64R WCI   2

 IN MA

CITY           SKY/WX    TMP DP  RH WIND       PRES   REMARKS
BOSTON         LGT SNOW  14  10  84 NW20G30   29.59R VSB 1   WCI  -3
WORCESTER      LGT SNOW  10   5  80 NW24G32   29.56R WCI -10
WESTFIELD      LGT SNOW  14   4  64 NW18      29.70R WCI  -3
PROVINCETOWN     N/A    N/A N/A N/A MISG        N/A
NANTUCKET      SNOW      23  18  81 NW35G51   29.46R VSB 1/2 WCI   4
$$

ANZ330-335-338-340-345-350-353-355-280200-
COASTAL MARINE OBSERVATIONS


STATION/POSITION TIME  SKY/WX   TEMP    WIND        PRES    VSBY  WAVE
                                AIR SEA DIR/SP/G                  HT/PER
                 (UTC)          (F)     (DEG/KT/KT) (MB)    (MI)  (FT/S)
NY HARB ENTRANCE 0100            29 40  330/ 16/ 21 1006.7          5/11
4S FIRE IS       0100               38                N/A           5/13
20S FIRE ISLAND  0000               43              1005.3          9/ 6
23SW MTP         0100                                 N/A           8/12
HUDSON CANYON    NOT AVBL
EXECUTION ROCKS  0100            24 34  340/ 16/ 21   N/A
WESTERN LI SOUND 0100            24     340/ 16/ 21   N/A           1/ 2
CENTRAL LI SOUND 0000            21 36  320/ 23/ 29   N/A           3/ 4
EASTERN LI SOUND NOT AVBL
ROBBINS REEF     0100            26     330/ 19/ 23 1006.3
$$


>>>>>>>>>>>>>>>>>>>>>>>>>>>> KEY <<<<<<<<<<<<<<<<<<<<<<<<<<<
>                                                          <
>     SKY/WX - SKY CONDITION/PRESENT WEATHER               <
>     TMP    - TEMPERATURE IN FAHRENHEIT                   <
>     DP     - DEWPOINT IN FAHRENHEIT                      <
>     RH     - RELATIVE HUMIDITY IN PERCENT                <
>     WIND   - DIRECTION AND SPEED IN MPH                  <
>     PRES   - MEAN SEA LEVEL PRESSURE IN INCHES OF HG     <
>     WCI    - WIND CHILL INDEX                            <
>     VSB    - VISIBILITY IN MILES                         <
>     HX     - HEAT INDEX                                  <
>     TC     - TEMPERATURE IN CELSIUS                      <
>     VRB    - VARIABLE WIND DIRECTION                     <
>                                                          <
>>>>>>>>>>>>>>>>>>>>>>>>>>>> KEY <<<<<<<<<<<<<<<<<<<<<<<<<<<




USA.gov is the U.S. government's official web portal to all federal, state and local government web resources and services.